LANGARA, B.C. current weather conditions

sailwx.info

Wind from 040 at 13 knots gusting 20

Air temperature 4.9° C
Dewpoint -2.9° C

Last reported at 2020-Oct-23 20:00 UTC.
Time now 2020-Oct-23 22:10 UTC

Location: N 54°15' W 133°03'.
View on Google Maps.

See reports from other nearby stations

  
Tides and Currents Weather Stations Pressure Air Temp Water Temp Dewpoint Dewpoint Depression Visibility Wind Speed Wind Dir Waves Ship Positions
date/time (UTC)wind fromknots sea level pressurealtimeterstation pressurevisibilityair tempwater tempwave heightnotes
2020-Oct-23 20:00 040 13 gusting 20 4.9
2020-Oct-23 19:00 030 13 gusting 20 5.1
2020-Oct-23 18:00 030 15 gusting 21 5.0
2020-Oct-23 16:00 040 12 gusting 20 5.0
2020-Oct-23 15:00 040 13 gusting 21 4.7
2020-Oct-23 14:00 050 11 gusting 20 5.0
2020-Oct-23 13:00 070 12 gusting 21 4.6
2020-Oct-23 12:00 060 12 gusting 20 5.0
2020-Oct-23 11:00 070 13 gusting 24 3.5
2020-Oct-23 10:00 070 17 gusting 27 4.2
2020-Oct-23 09:00 070 18 gusting 34 4.0
2020-Oct-23 08:00 080 18 gusting 29 4.1
2020-Oct-23 07:00 080 17 gusting 34 4.7
2020-Oct-23 06:00 090 14 gusting 24 4.9
2020-Oct-23 05:00 090 14 gusting 27 5.1
2020-Oct-23 03:00 090 13 gusting 25 4.5
2020-Oct-23 02:00 090 11 gusting 20 5.1
2020-Oct-23 01:00 090 8 gusting 15 4.9
2020-Oct-23 00:00 100 7 5.0
2020-Oct-22 23:00 080 6 4.7
2020-Oct-22 22:00 150 4 5.2
2020-Oct-22 21:00 140 2 5.0
2020-Oct-22 20:00 110 6 5.1
2020-Oct-22 19:00 110 2 5.4
2020-Oct-22 18:00 100 4 5.1
2020-Oct-22 17:00 080 6 5.0
2020-Oct-22 16:00 110 4 4.0
2020-Oct-22 15:00 050 0 4.0
2020-Oct-22 14:00 220 0 4.0
2020-Oct-22 13:00 280 1 3.8
2020-Oct-22 12:00 020 1 4.0
2020-Oct-22 11:00 350 6 3.3
2020-Oct-22 10:00 340 7 3.0
2020-Oct-22 08:00 330 7 4.0
2020-Oct-22 07:00 330 8 5.0
2020-Oct-22 06:00 320 8 5.2
2020-Oct-22 05:00 310 7 5.3
2020-Oct-22 03:00 330 11 5.6
2020-Oct-22 02:00 330 11 5.9
2020-Oct-22 01:00 330 11 6.3
2020-Oct-21 23:00 330 6 7.2
2020-Oct-21 22:00 340 6 7.3